Regional Weather Roundup
Issued by NWS

Home | Current Version | Previous Version | Text Only | Print | Product List | Glossary Off
Versions: 1 2 3 4 5 6 7 8 9 10 11 12 13 14 15 16 17 18 19 20 21 22 23 24 25 26 27 28 29 30 31 32 33 34 35 36 37 38 39 40 41 42 43 44 45 46 47 48 49 50

000
ASUS43 KDTX 070001
RWRMI
MICHIGAN HOURLY REGIONAL WEATHER ROUNDUP
NATIONAL WEATHER SERVICE DETROIT/PONTIAC MI
700 PM EST FRI MAR 06 2015

NOTE: "FAIR" INDICATES FEW OR NO CLOUDS BELOW 12,000 FEET WITH NO
SIGNIFICANT WEATHER AND/OR OBSTRUCTION TO VISIBILITY.

MIZ047>049-052>055-059>063-066>070-074>076-081>083-070100-
SOUTHEAST LOWER MICHIGAN

CITY           SKY/WX    TMP DP  RH WIND       PRES   REMARKS
ADRIAN         PTCLDY    19  10  68 SW10      30.25F WCI   7
6HR MIN TEMP:  15; 6HR MAX TEMP:  21;

ALMA           CLOUDY    22   7  52 S14       30.14F WCI   9
6HR MIN TEMP:  19; 6HR MAX TEMP:  23;

ANN ARBOR      MOCLDY    20   9  62 SW13      30.22F WCI   7
BAD AXE        CLOUDY    23   4  45 SW12      30.11F WCI  12
6HR MIN TEMP:  21; 6HR MAX TEMP:  25;

CARO           CLOUDY    23   4  43 S16       30.12F WCI  10
DETROIT CITY   CLOUDY    23   9  55 SW16      30.23F WCI  10
6HR MIN TEMP:  21; 6HR MAX TEMP:  24;

DETROIT        CLOUDY    21  10  62 S14       30.25F WCI   8
6HR MIN TEMP:  20; 6HR MAX TEMP:  23;

FLINT          CLOUDY    23   4  44 S10       30.17F WCI  12
6HR MIN TEMP:  22; 6HR MAX TEMP:  26;

GROSSE ILE     CLOUDY    21  12  68 S13       30.25S WCI   9
HILLSDALE      CLOUDY    20   8  60 S10       30.19F WCI   9
HOWELL         MOCLDY    21   6  53 S13       30.18R WCI   8

CITY           SKY/WX    TMP DP  RH WIND       PRES   REMARKS
JACKSON        CLOUDY    21   6  52 S12       30.18F WCI   9
6HR MIN TEMP:  19; 6HR MAX TEMP:  23;

LAMBERTVILLE   MOCLDY    25  12  58 SW12      30.26F WCI  14
LANSING        CLOUDY    22   5  48 S15G24    30.17F WCI   9
6HR MIN TEMP:  18; 6HR MAX TEMP:  23;

LAPEER         MOCLDY    20   4  50 SW17G24   30.16F WCI   5
MASON          CLOUDY    21   5  50 S5        30.18S WCI  15
MONROE         CLOUDY    21  10  63 SW8       30.25S WCI  12
MT. CLEMENS    CLOUDY    22   7  53 SW15G22   30.20F WCI   8
6HR MIN TEMP:  20; 6HR MAX TEMP:  24;

PONTIAC        CLOUDY    19   7  59 S12       30.17F WCI   7
6HR MIN TEMP:  19; 6HR MAX TEMP:  22;

PORT HOPE        N/A     24   1  36 SW8       30.09F WCI  15
6HR MIN TEMP:  21; 6HR MAX TEMP:  26;

PORT HURON     MOCLDY    18  10  73 S15       30.21F WCI   3
TRI CITIES     MOCLDY    23   5  46 SW13      30.13F WCI  11
6HR MIN TEMP:  20; 6HR MAX TEMP:  24;

TROY           CLOUDY    23   7  51 SW13G23   30.23F WCI  11
SAGINAW HB     FAIR      23   7  50 S22       30.13F WCI   8
$$
MIZ043>046-050>051-056>058-064>065-071>073-077>080-070100-
SOUTHWEST LOWER MICHIGAN

CITY           SKY/WX    TMP DP  RH WIND       PRES   REMARKS
BATTLE CREEK   MOCLDY    22   7  52 S17       30.18F WCI   8
6HR MIN TEMP:  17; 6HR MAX TEMP:  23;

BENTON HARBOR  PTCLDY    22   9  57 S14G23    30.20F WCI   9
6HR MIN TEMP:  17; 6HR MAX TEMP:  23;

BIG RAPIDS     MOCLDY    23   9  54 SW14G23   30.08S WCI  11
6HR MIN TEMP:  22; 6HR MAX TEMP:  25;

COLDWATER      FAIR      22   7  53 S5        30.20F WCI  15
6HR MIN TEMP:  17; 6HR MAX TEMP:  23;

FREMONT        CLOUDY    21  10  63 SW17G23   30.12S WCI   7
6HR MIN TEMP:  19; 6HR MAX TEMP:  22;

HOLLAND        CLOUDY    25  10  53 S18       30.17S WCI  11
6HR MIN TEMP:  20; 6HR MAX TEMP:  26;

GRAND RAPIDS   MOCLDY    22   6  50 S12       30.16S WCI  10
6HR MIN TEMP:  18; 6HR MAX TEMP:  24;

IONIA          CLOUDY    23   8  51 SW10      30.15S WCI  12
KALAMAZOO      PTCLDY    22   8  55 S16       30.19F WCI   8
6HR MIN TEMP:  18; 6HR MAX TEMP:  23;

LUDINGTON      CLOUDY    28  21  74 S15G25    30.08S WCI  17
MARSHALL       FAIR      21   7  54 S9        30.18F WCI  11
MOUNT PLEASANT CLOUDY    23   6  48 S9        30.10F WCI  13
6HR MIN TEMP:  22; 6HR MAX TEMP:  25;

MUSKEGON       MOCLDY    22  13  68 S18       30.14F WCI   7
6HR MIN TEMP:  18; 6HR MAX TEMP:  22; 6HR PCP: TRACE;

SOUTH HAVEN    PTCLDY    25   8  48 SW9G18    30.19S WCI  15
$$
MIZ016>042-070100-
NORTHERN LOWER MICHIGAN

CITY           SKY/WX    TMP DP  RH WIND       PRES   REMARKS
ALPENA         MOCLDY    25   8  48 SW12      30.00S WCI  14
6HR MIN TEMP:  25; 6HR MAX TEMP:  31; 6HR PCP: TRACE;

BEAVER ISLAND  CLOUDY    25  20  81 SW15G26   29.98R WCI  13
6HR MIN TEMP:  23; 6HR MAX TEMP:  25;

BELLAIRE       CLOUDY    27  15  60 SW13G18   30.02S WCI  16
6HR MIN TEMP:  26; 6HR MAX TEMP:  31;

CADILLAC       MOCLDY    19  10  68 SW22G29   30.01S WCI   3
CHARLEVOIX     CLOUDY    25  16  67 SW10G23   30.02S WCI  15
FRANKFORT      CLOUDY    26  21  81 S13G24    30.04F WCI  15
GAYLORD        CLOUDY    24  11  57 SW16G23   29.96S WCI  11
6HR MIN TEMP:  22; 6HR MAX TEMP:  27; 6HR PCP: TRACE;

GRAYLING       CLOUDY    24   9  53 S12G20    30.01S WCI  13
6HR MIN TEMP:  21; 6HR MAX TEMP:  28;

HARBOR SPRINGS CLOUDY    26  15  65 SW15      29.98S WCI  13
HOUGHTON LAKE  CLOUDY    22   5  48 SW16G23   30.03F WCI   8
6HR MIN TEMP:  22; 6HR MAX TEMP:  24;

MANISTEE       CLOUDY    27  16  63 S13G23    30.06F WCI  16
OSCODA         CLOUDY    21   6  53 SW16G22   30.05F WCI   7
PELLSTON       CLOUDY    27  14  58 SW13G23   29.98R WCI  16
6HR MIN TEMP:  23; 6HR MAX TEMP:  29; 6HR PCP:  0.12;

ROGERS CITY    CLOUDY    28  14  54 SW9G18    29.98F WCI  19
TRAVERSE CITY  MOCLDY    25  15  66 SW15G25   30.00S WCI  13
6HR MIN TEMP:  25; 6HR MAX TEMP:  31;

$$
MIZ007>008-015-070100-
EASTERN UPPER MICHIGAN

CITY           SKY/WX    TMP DP  RH WIND       PRES   REMARKS
KINROSS        CLOUDY    25  21  86 SW10G22   29.95R WCI  15
6HR MIN TEMP:  23; 6HR MAX TEMP:  28;

MACKINAC ISLAN CLOUDY    24  19  78 SW18G26   29.97R WCI  10
6HR MIN TEMP:  23; 6HR MAX TEMP:  29;

NEWBERRY       CLOUDY    23  16  73 SW13G21   29.92S WCI  11
6HR MIN TEMP:  22; 6HR MAX TEMP:  24;

S. S. MARIE    CLOUDY    25  16  68 SW15G23   29.94R WCI  13
6HR MIN TEMP:  21; 6HR MAX TEMP:  25; 6HR PCP: TRACE;

MUNISING         N/A     26  10  50 SW5       29.94R WCI  20
6HR MIN TEMP:  24; 6HR MAX TEMP:  29;

$$
MIZ004>006-011>014-085-070100-
CENTRAL UPPER MICHIGAN

CITY           SKY/WX    TMP DP  RH WIND       PRES   REMARKS
MANISTIQUE     CLEAR     24  14  66 SW9       29.94F WCI  14
ESCANABA       CLEAR     23  16  74 SW14      29.95S WCI  11
6HR MIN TEMP:  16; 6HR MAX TEMP:  25;

MENOMINEE      CLEAR     28  12  50 S7        29.97R WCI  21
6HR MIN TEMP:  19; 6HR MAX TEMP:  30;

SAWYER-GWINN   CLEAR     28   9  43 W5        29.89R WCI  23
$$
MIZ001>003-009>011-084-070100-
WESTERN UPPER MICHIGAN

CITY           SKY/WX    TMP DP  RH WIND       PRES   REMARKS
IRON MOUNTAIN  CLEAR     28  10  46 W6        29.91R WCI  22
6HR MIN TEMP:  26; 6HR MAX TEMP:  32;

HOUGHTON       CLEAR     25  15  66 W18       29.89R WCI  11
6HR MIN TEMP:  22; 6HR MAX TEMP:  26;

COPPER HARBOR    N/A     28  13  53 VRB7G18   29.88R WCI  21
6HR MIN TEMP:  25; 6HR MAX TEMP:  29;

IRONWOOD       CLEAR     28  10  47 W9        29.93R WCI  20
6HR MIN TEMP:  23; 6HR MAX TEMP:  30;

$$

ABBREVIATIONS USED IN REMARKS
   TC - TEMPERATURE IN CELSIUS
  WCI - WIND CHILL INDEX
   HX - HEAT INDEX
  VSB - VISIBILITY



USA.gov is the U.S. government's official web portal to all federal, state and local government web resources and services.